sat.trackr.live / text

‹ back to catalog

ONEWEB-0558

NORAD 56059 · 2023-043P

PAYLOAD ACTIVE UNKNOWN

§ Identity

Operator
Country
UK
Launch date
2023-03-26
Launch site
SRILR
Launch vehicle
Mass (kg)
RCS (m²)

Purposes: comms

External: N2YO · Heavens-Above · Gunter

§ Orbital elements

Epoch: 2026-09-20T03:22:03.804384Z

Period
108.94 min
Inclination
87.9280°
Eccentricity
0.0001709
Mean motion
13.21825533 rev/d
Perigee alt
1,176.5 km
Apogee alt
1,179.0 km
Semi-major
7,555.9 km
B*
2.3871e-5
RAAN
225.0774°
Arg perigee
78.3432°
Mean anomaly
281.7894°
Rev number
17,078

§ Raw data

ONEWEB-05581 56059U 23043P   26263.14032181  .00000023  00000+0  23871-4 0  99952 56059  87.9280 225.0774 0001709  78.3432 281.7894 13.21825533170787

JSON: /api/v1/satellites/56059 · /tle

For live sub-satellite position, see the globe view (requires WebGL).

§ Visibility from observer

Set your observer location to see the next 7 days of passes ≥ 10°. The values pass through the URL so the page stays shareable.

No JS? Fill the form by hand. The geolocation button needs JavaScript.